QPF
0.00 0.00 0.00 0.00 0.00 0.01 0.01 0.01 0.03 0.06 0.11 0.18 0.26 0.36 0.38 0.33 0.26 0.24 0.24 0.24 0.29 0.34 0.33 0.30 0.26 0.21 0.18 0.17 0.14 0.10 0.07 0.04 0.03 0.03 0.02 0.01 0.01 0.01 0.00 0.00 0.00 0.00 0.00
0.00 0.00 0.00 0.00 0.00 0.02 0.03 0.03 0.03 0.08 0.17 0.31 0.43 0.53 0.56 0.51 0.44 0.37 0.38 0.41 0.42 0.41 0.36 0.31 0.26 0.21 0.16 0.13 0.10 0.08 0.06 0.03 0.02 0.02 0.01 0.01 0.00 0.00 0.00 0.00 0.00 0.00 0.00
0.00 0.00 0.00 0.00 0.01 0.03 0.04 0.04 0.06 0.14 0.28 0.44 0.60 0.66 0.64 0.56 0.49 0.43 0.44 0.45 0.45 0.44 0.40 0.34 0.26 0.18 0.14 0.11 0.08 0.05 0.03 0.01 0.01 0.00 0.00 0.00 0.00 0.00 0.00 0.00 0.00 0.00 0.00
0.00 0.00 0.00 0.01 0.02 0.03 0.04 0.05 0.11 0.24 0.41 0.54 0.63 0.64 0.63 0.58 0.54 0.46 0.45 0.44 0.42 0.41 0.36 0.27 0.19 0.15 0.10 0.07 0.04 0.02 0.01 0.00 0.00 0.00 0.00 0.00 0.00 0.00 0.00 0.00 0.00 0.00 0.00
0.00 0.00 0.00 0.01 0.03 0.04 0.06 0.08 0.16 0.31 0.48 0.60 0.66 0.73 0.74 0.67 0.57 0.48 0.42 0.37 0.31 0.25 0.20 0.14 0.10 0.07 0.04 0.03 0.01 0.01 0.00 0.00 0.00 0.00 0.00 0.00 0.00 0.00 0.00 0.00 0.00 0.00 0.00
0.00 0.00 0.01 0.01 0.03 0.05 0.09 0.14 0.23 0.39 0.54 0.63 0.69 0.69 0.65 0.52 0.40 0.36 0.33 0.27 0.21 0.15 0.12 0.08 0.05 0.03 0.02 0.01 0.01 0.01 0.00 0.01 0.00 0.00 0.00 0.00 0.00 0.00 0.00 0.00 0.00 0.00 0.00
0.01 0.01 0.02 0.04 0.05 0.08 0.13 0.20 0.32 0.46 0.60 0.64 0.59 0.50 0.40 0.31 0.28 0.28 0.24 0.19 0.14 0.10 0.05 0.03 0.02 0.02 0.01 0.01 0.01 0.01 0.00 0.00 0.00 0.00 0.00 0.00 0.00 0.00 0.00 0.00 0.00 0.00 0.00
0.02 0.02 0.04 0.06 0.08 0.12 0.21 0.29 0.39 0.50 0.53 0.46 0.39 0.31 0.25 0.21 0.19 0.15 0.11 0.08 0.06 0.04 0.02 0.01 0.01 0.01 0.00 0.00 0.00 0.00 0.00 0.00 0.00 0.00 0.00 0.00 0.00 0.00 0.00 0.00 0.00 0.00 0.00
0.03 0.04 0.06 0.07 0.10 0.15 0.22 0.28 0.34 0.35 0.30 0.21 0.15 0.12 0.10 0.09 0.08 0.06 0.04 0.03 0.02 0.02 0.01 0.01 0.01 0.00 0.00 0.00 0.00 0.00 0.00 0.00 0.00 0.00 0.00 0.00 0.00 0.00 0.00 0.00 0.00 0.00 0.00
0.03 0.04 0.06 0.09 0.11 0.14 0.15 0.15 0.15 0.12 0.09 0.06 0.04 0.04 0.05 0.05 0.04 0.03 0.02 0.02 0.02 0.01 0.01 0.01 0.01 0.00 0.00 0.00 0.00 0.00 0.00 0.00 0.00 0.00 0.00 0.00 0.00 0.00 0.00 0.00 0.00 0.00 0.00
0.05 0.05 0.06 0.07 0.07 0.06 0.05 0.04 0.03 0.03 0.02 0.02 0.02 0.01 0.02 0.01 0.01 0.01 0.01 0.01 0.01 0.01 0.01 0.01 0.01 0.01 0.01 0.00 0.00 0.00 0.00 0.00 0.00 0.00 0.00 0.00 0.00 0.00 0.00 0.00 0.00 0.00 0.00
0.04 0.05 0.04 0.03 0.02 0.02 0.02 0.02 0.01 0.01 0.01 0.01 0.01 0.01 0.01 0.01 0.01 0.01 0.01 0.01 0.01 0.01 0.01 0.01 0.01 0.01 0.01 0.01 0.00 0.00 0.00 0.00 0.00 0.00 0.00 0.00 0.00 0.00 0.00 0.00 0.00 0.00 0.00
0.03 0.03 0.03 0.02 0.01 0.01 0.01 0.01 0.00 0.00 0.00 0.00 0.00 0.00 0.00 0.00 0.00 0.01 0.01 0.01 0.01 0.01 0.01 0.01 0.01 0.01 0.01 0.01 0.00 0.00 0.00 0.00 0.00 0.00 0.00 0.00 0.00 0.00 0.00 0.00 0.00 0.00 0.00
0.01 0.01 0.01 0.01 0.01 0.01 0.00 0.00 0.00 0.00 0.00 0.00 0.00 0.00 0.00 0.00 0.01 0.01 0.01 0.01 0.01 0.02 0.02 0.02 0.01 0.01 0.00 0.00 0.00 0.00 0.00 0.00 0.00 0.00 0.00 0.00 0.00 0.00 0.00 0.00 0.00 0.00 0.01
0.01 0.01 0.01 0.00 0.00 0.00 0.00 0.00 0.00 0.00 0.00 0.00 0.00 0.01 0.01 0.01 0.01 0.02 0.02 0.02 0.02 0.01 0.01 0.01 0.00 0.00 0.00 0.00 0.00 0.00 0.00 0.00 0.00 0.00 0.00 0.00 0.00 0.00 0.01 0.01 0.01 0.01 0.01
0.01 0.01 0.00 0.00 0.00 0.00 0.00 0.00 0.00 0.00 0.00 0.00 0.01 0.01 0.02 0.02 0.02 0.02 0.01 0.01 0.01 0.01 0.00 0.00 0.00 0.00 0.00 0.00 0.00 0.00 0.00 0.00 0.00 0.00 0.00 0.00 0.00 0.00 0.00 0.01 0.01 0.02 0.02
0.01 0.01 0.00 0.00 0.00 0.00 0.00 0.00 0.00 0.00 0.01 0.01 0.02 0.02 0.02 0.02 0.02 0.02 0.01 0.01 0.01 0.00 0.00 0.00 0.00 0.00 0.00 0.00 0.00 0.00 0.00 0.00 0.00 0.00 0.00 0.00 0.00 0.00 0.00 0.00 0.00 0.00 0.01
0.00 0.00 0.00 0.00 0.00 0.00 0.00 0.01 0.01 0.01 0.01 0.02 0.02 0.02 0.02 0.02 0.01 0.01 0.01 0.00 0.00 0.00 0.00 0.00 0.00 0.00 0.00 0.00 0.00 0.00 0.00 0.00 0.00 0.00 0.00 0.00 0.00 0.00 0.00 0.00 0.00 0.00 0.00
0.00 0.00 0.00 0.00 0.00 0.01 0.01 0.01 0.01 0.02 0.02 0.02 0.02 0.01 0.01 0.01 0.00 0.00 0.00 0.00 0.00 0.00 0.00 0.00 0.00 0.00 0.00 0.00 0.00 0.00 0.00 0.00 0.00 0.00 0.00 0.00 0.00 0.00 0.01 0.01 0.01 0.00 0.00
0.00 0.00 0.00 0.00 0.01 0.01 0.01 0.01 0.02 0.02 0.02 0.01 0.01 0.01 0.00 0.00 0.00 0.00 0.00 0.00 0.00 0.00 0.00 0.00 0.00 0.00 0.00 0.00 0.00 0.00 0.00 0.00 0.00 0.00 0.00 0.00 0.00 0.00 0.00 0.01 0.01 0.01 0.01
0.00 0.00 0.01 0.01 0.01 0.01 0.01 0.01 0.01 0.01 0.01 0.00 0.00 0.00 0.00 0.00 0.00 0.00 0.00 0.00 0.00 0.00 0.00 0.00 0.00 0.00 0.00 0.00 0.00 0.00 0.00 0.00 0.00 0.00 0.00 0.00 0.00 0.00 0.00 0.01 0.01 0.01 0.01
0.00 0.00 0.00 0.01 0.01 0.01 0.01 0.01 0.01 0.00 0.00 0.00 0.00 0.00 0.00 0.00 0.00 0.00 0.00 0.00 0.00 0.00 0.00 0.00 0.00 0.00 0.00 0.00 0.00 0.00 0.00 0.00 0.00 0.00 0.00 0.00 0.00 0.00 0.01 0.01 0.01 0.01 0.02
0.01 0.01 0.01 0.01 0.01 0.00 0.00 0.00 0.00 0.00 0.00 0.00 0.00 0.00 0.00 0.00 0.00 0.00 0.00 0.00 0.00 0.00 0.00 0.00 0.00 0.00 0.00 0.00 0.00 0.00 0.00 0.00 0.00 0.00 0.01 0.01 0.00 0.00 0.01 0.01 0.01 0.02 0.02
0.00 0.00 0.00 0.00 0.00 0.00 0.00 0.00 0.00 0.00 0.00 0.00 0.00 0.00 0.00 0.00 0.00 0.00 0.00 0.00 0.00 0.00 0.00 0.00 0.00 0.00 0.00 0.00 0.00 0.00 0.00 0.00 0.00 0.00 0.01 0.01 0.01 0.01 0.01 0.01 0.02 0.02 0.03
0.00 0.00 0.00 0.00 0.00 0.00 0.00 0.00 0.00 0.00 0.00 0.00 0.00 0.00 0.00 0.00 0.00 0.00 0.00 0.00 0.00 0.00 0.00 0.00 0.00 0.00 0.00 0.00 0.00 0.00 0.00 0.01 0.01 0.01 0.01 0.01 0.01 0.01 0.02 0.02 0.02 0.02 0.03
0.00 0.00 0.00 0.00 0.00 0.00 0.00 0.00 0.00 0.00 0.00 0.00 0.00 0.00 0.00 0.00 0.00 0.00 0.00 0.00 0.00 0.00 0.00 0.00 0.00 0.00 0.00 0.01 0.00 0.01 0.01 0.01 0.01 0.01 0.01 0.02 0.02 0.02 0.03 0.04 0.03 0.03 0.03
MSLP
1007.67 1007.71 1007.79 1007.88 1007.97 1008.10 1008.30 1008.62 1009.10 1009.75 1010.56 1011.50 1012.48 1013.44 1014.31 1015.04 1015.59 1015.97 1016.20 1016.36 1016.48 1016.63 1016.85 1017.16 1017.56 1018.02 1018.52 1019.01 1019.48 1019.89 1020.22 1020.49 1020.69 1020.84 1020.95 1021.03 1021.10 1021.14 1021.17 1021.18 1021.16 1021.12 1021.06
1007.48 1007.55 1007.66 1007.76 1007.87 1007.99 1008.19 1008.51 1009.00 1009.68 1010.53 1011.52 1012.58 1013.62 1014.57 1015.36 1015.96 1016.37 1016.62 1016.77 1016.88 1016.99 1017.17 1017.43 1017.77 1018.18 1018.63 1019.08 1019.51 1019.91 1020.24 1020.53 1020.76 1020.96 1021.12 1021.25 1021.35 1021.42 1021.46 1021.46 1021.43 1021.36 1021.27
1007.40 1007.51 1007.67 1007.81 1007.94 1008.08 1008.27 1008.58 1009.05 1009.72 1010.58 1011.58 1012.67 1013.75 1014.75 1015.59 1016.24 1016.70 1016.99 1017.16 1017.28 1017.39 1017.54 1017.76 1018.05 1018.40 1018.78 1019.17 1019.56 1019.91 1020.24 1020.53 1020.80 1021.03 1021.24 1021.41 1021.55 1021.64 1021.68 1021.67 1021.61 1021.52 1021.39
1007.46 1007.64 1007.85 1008.05 1008.22 1008.37 1008.55 1008.83 1009.26 1009.89 1010.70 1011.67 1012.73 1013.81 1014.82 1015.70 1016.39 1016.91 1017.26 1017.48 1017.64 1017.77 1017.93 1018.13 1018.38 1018.67 1018.99 1019.32 1019.65 1019.97 1020.27 1020.56 1020.84 1021.11 1021.35 1021.55 1021.71 1021.81 1021.84 1021.81 1021.71 1021.58 1021.41
1007.71 1007.96 1008.24 1008.49 1008.69 1008.85 1009.02 1009.25 1009.63 1010.18 1010.91 1011.80 1012.80 1013.83 1014.82 1015.70 1016.43 1016.99 1017.41 1017.71 1017.93 1018.11 1018.30 1018.51 1018.74 1019.00 1019.27 1019.55 1019.83 1020.10 1020.38 1020.66 1020.94 1021.22 1021.48 1021.70 1021.86 1021.95 1021.96 1021.88 1021.74 1021.54 1021.31
1008.18 1008.49 1008.83 1009.12 1009.35 1009.52 1009.67 1009.86 1010.16 1010.61 1011.24 1012.02 1012.92 1013.87 1014.80 1015.66 1016.39 1017.00 1017.48 1017.85 1018.15 1018.40 1018.64 1018.88 1019.12 1019.37 1019.61 1019.85 1020.09 1020.33 1020.58 1020.84 1021.11 1021.38 1021.63 1021.84 1021.99 1022.05 1022.02 1021.89 1021.68 1021.41 1021.12
1008.86 1009.22 1009.60 1009.94 1010.19 1010.37 1010.50 1010.64 1010.87 1011.22 1011.73 1012.38 1013.16 1013.99 1014.84 1015.65 1016.37 1016.99 1017.51 1017.95 1018.32 1018.65 1018.95 1019.23 1019.50 1019.75 1019.99 1020.21 1020.42 1020.63 1020.85 1021.08 1021.33 1021.57 1021.80 1021.98 1022.08 1022.10 1022.01 1021.82 1021.54 1021.21 1020.83
1009.70 1010.10 1010.53 1010.90 1011.18 1011.36 1011.48 1011.59 1011.75 1012.01 1012.41 1012.94 1013.58 1014.29 1015.03 1015.76 1016.43 1017.04 1017.58 1018.06 1018.49 1018.88 1019.24 1019.57 1019.87 1020.14 1020.38 1020.58 1020.78 1020.96 1021.15 1021.35 1021.56 1021.76 1021.94 1022.07 1022.13 1022.09 1021.94 1021.68 1021.34 1020.94 1020.50
1010.66 1011.10 1011.56 1011.96 1012.26 1012.45 1012.57 1012.66 1012.79 1012.98 1013.29 1013.70 1014.22 1014.81 1015.43 1016.05 1016.66 1017.22 1017.75 1018.24 1018.69 1019.12 1019.52 1019.89 1020.22 1020.50 1020.75 1020.95 1021.12 1021.28 1021.44 1021.60 1021.76 1021.91 1022.04 1022.11 1022.11 1022.01 1021.80 1021.49 1021.10 1020.64 1020.16
1011.68 1012.16 1012.64 1013.06 1013.38 1013.60 1013.73 1013.83 1013.94 1014.10 1014.33 1014.66 1015.07 1015.54 1016.04 1016.56 1017.07 1017.57 1018.05 1018.51 1018.96 1019.40 1019.81 1020.20 1020.54 1020.84 1021.08 1021.28 1021.43 1021.57 1021.69 1021.80 1021.91 1022.00 1022.06 1022.07 1022.01 1021.86 1021.60 1021.25 1020.83 1020.34 1019.83
1012.72 1013.23 1013.73 1014.16 1014.50 1014.74 1014.90 1015.02 1015.13 1015.28 1015.48 1015.75 1016.08 1016.45 1016.85 1017.26 1017.67 1018.08 1018.49 1018.91 1019.32 1019.74 1020.14 1020.52 1020.85 1021.14 1021.38 1021.56 1021.69 1021.79 1021.87 1021.93 1021.98 1022.01 1022.01 1021.96 1021.85 1021.65 1021.36 1020.99 1020.54 1020.05 1019.52
1013.75 1014.28 1014.79 1015.23 1015.58 1015.83 1016.02 1016.16 1016.30 1016.45 1016.65 1016.88 1017.15 1017.44 1017.75 1018.07 1018.39 1018.71 1019.05 1019.40 1019.76 1020.13 1020.50 1020.86 1021.17 1021.44 1021.65 1021.80 1021.90 1021.96 1021.99 1022.00 1021.99 1021.96 1021.90 1021.79 1021.62 1021.39 1021.07 1020.69 1020.24 1019.74 1019.22
1014.76 1015.30 1015.81 1016.23 1016.57 1016.84 1017.04 1017.21 1017.37 1017.54 1017.74 1017.95 1018.19 1018.43 1018.68 1018.92 1019.16 1019.41 1019.67 1019.96 1020.26 1020.59 1020.91 1021.22 1021.50 1021.73 1021.91 1022.02 1022.08 1022.09 1022.06 1022.01 1021.94 1021.85 1021.73 1021.57 1021.36 1021.08 1020.75 1020.35 1019.90 1019.41 1018.90
1015.75 1016.29 1016.77 1017.17 1017.48 1017.73 1017.93 1018.11 1018.29 1018.48 1018.69 1018.90 1019.12 1019.34 1019.54 1019.73 1019.92 1020.11 1020.32 1020.55 1020.80 1021.08 1021.36 1021.62 1021.86 1022.04 1022.17 1022.23 1022.23 1022.19 1022.10 1021.99 1021.86 1021.70 1021.52 1021.30 1021.05 1020.74 1020.38 1019.97 1019.52 1019.03 1018.51
1016.73 1017.25 1017.69 1018.04 1018.31 1018.52 1018.71 1018.88 1019.06 1019.26 1019.47 1019.69 1019.91 1020.11 1020.29 1020.46 1020.62 1020.78 1020.95 1021.14 1021.36 1021.59 1021.83 1022.05 1022.23 1022.36 1022.43 1022.43 1022.38 1022.27 1022.12 1021.94 1021.74 1021.52 1021.28 1021.01 1020.71 1020.36 1019.97 1019.54 1019.07 1018.56 1018.04
1017.69 1018.17 1018.56 1018.85 1019.06 1019.23 1019.38 1019.53 1019.70 1019.90 1020.12 1020.34 1020.56 1020.76 1020.94 1021.10 1021.25 1021.39 1021.55 1021.72 1021.92 1022.11 1022.31 1022.48 1022.61 1022.68 1022.69 1022.63 1022.51 1022.33 1022.11 1021.87 1021.60 1021.32 1021.02 1020.69 1020.34 1019.95 1019.52 1019.05 1018.56 1018.03 1017.49
1018.62 1019.05 1019.38 1019.60 1019.76 1019.87 1019.98 1020.10 1020.26 1020.44 1020.66 1020.88 1021.10 1021.31 1021.50 1021.67 1021.82 1021.97 1022.12 1022.28 1022.45 1022.63 1022.78 1022.91 1022.98 1022.99 1022.93 1022.80 1022.61 1022.36 1022.08 1021.77 1021.44 1021.10 1020.74 1020.36 1019.96 1019.52 1019.05 1018.55 1018.02 1017.46 1016.90
1019.49 1019.88 1020.14 1020.31 1020.41 1020.48 1020.55 1020.64 1020.78 1020.95 1021.16 1021.38 1021.61 1021.82 1022.02 1022.20 1022.36 1022.51 1022.67 1022.82 1022.97 1023.11 1023.23 1023.30 1023.31 1023.26 1023.13 1022.94 1022.68 1022.36 1022.01 1021.64 1021.26 1020.86 1020.46 1020.03 1019.58 1019.11 1018.60 1018.05 1017.49 1016.91 1016.32
1020.27 1020.62 1020.85 1020.97 1021.03 1021.07 1021.11 1021.18 1021.30 1021.47 1021.67 1021.89 1022.12 1022.34 1022.55 1022.73 1022.90 1023.05 1023.20 1023.33 1023.45 1023.56 1023.62 1023.64 1023.60 1023.48 1023.29 1023.02 1022.70 1022.33 1021.93 1021.51 1021.08 1020.64 1020.19 1019.73 1019.24 1018.73 1018.19 1017.62 1017.02 1016.42 1015.82
1020.96 1021.28 1021.48 1021.58 1021.62 1021.64 1021.67 1021.73 1021.85 1022.01 1022.20 1022.43 1022.65 1022.88 1023.08 1023.27 1023.43 1023.57 1023.70 1023.81 1023.90 1023.95 1023.97 1023.92 1023.81 1023.63 1023.38 1023.06 1022.69 1022.27 1021.83 1021.38 1020.91 1020.44 1019.97 1019.48 1018.97 1018.43 1017.87 1017.27 1016.66 1016.04 1015.43
1021.54 1021.85 1022.03 1022.13 1022.16 1022.18 1022.21 1022.27 1022.38 1022.54 1022.74 1022.96 1023.19 1023.41 1023.61 1023.79 1023.94 1024.06 1024.16 1024.23 1024.28 1024.28 1024.24 1024.13 1023.97 1023.73 1023.43 1023.07 1022.66 1022.21 1021.74 1021.26 1020.78 1020.29 1019.80 1019.30 1018.77 1018.22 1017.64 1017.04 1016.42 1015.80 1015.19
1022.02 1022.32 1022.50 1022.59 1022.63 1022.65 1022.68 1022.75 1022.86 1023.02 1023.22 1023.44 1023.67 1023.88 1024.08 1024.25 1024.38 1024.48 1024.55 1024.58 1024.58 1024.53 1024.43 1024.28 1024.06 1023.79 1023.45 1023.06 1022.62 1022.16 1021.68 1021.19 1020.70 1020.20 1019.70 1019.19 1018.66 1018.10 1017.52 1016.92 1016.30 1015.68 1015.07
1022.42 1022.70 1022.88 1022.97 1023.00 1023.02 1023.06 1023.12 1023.24 1023.39 1023.59 1023.81 1024.03 1024.25 1024.44 1024.60 1024.72 1024.80 1024.84 1024.84 1024.79 1024.70 1024.56 1024.36 1024.11 1023.80 1023.44 1023.04 1022.60 1022.14 1021.66 1021.17 1020.68 1020.18 1019.68 1019.16 1018.63 1018.07 1017.49 1016.88 1016.27 1015.66 1015.06
1022.75 1023.01 1023.17 1023.25 1023.27 1023.28 1023.30 1023.36 1023.46 1023.61 1023.80 1024.01 1024.24 1024.45 1024.64 1024.80 1024.92 1024.99 1025.01 1024.98 1024.91 1024.79 1024.62 1024.40 1024.13 1023.80 1023.44 1023.03 1022.60 1022.14 1021.67 1021.19 1020.71 1020.21 1019.71 1019.19 1018.66 1018.10 1017.52 1016.92 1016.31 1015.70 1015.12
1023.02 1023.26 1023.38 1023.43 1023.43 1023.41 1023.41 1023.44 1023.52 1023.65 1023.83 1024.04 1024.26 1024.48 1024.68 1024.85 1024.97 1025.05 1025.07 1025.04 1024.95 1024.82 1024.63 1024.40 1024.12 1023.80 1023.43 1023.04 1022.62 1022.18 1021.72 1021.25 1020.78 1020.29 1019.79 1019.28 1018.74 1018.18 1017.60 1017.01 1016.41 1015.81 1015.23
1023.25 1023.45 1023.54 1023.54 1023.50 1023.44 1023.39 1023.39 1023.44 1023.54 1023.71 1023.91 1024.14 1024.37 1024.59 1024.77 1024.91 1025.00 1025.04 1025.01 1024.93 1024.79 1024.61 1024.37 1024.10 1023.78 1023.43 1023.06 1022.65 1022.23 1021.79 1021.34 1020.88 1020.40 1019.91 1019.40 1018.86 1018.31 1017.74 1017.15 1016.56 1015.97 1015.40
Thickness
5800 5798 5798 5797 5794 5790 5785 5780 5773 5765 5756 5746 5736 5726 5717 5713 5708 5704 5700 5697 5694 5689 5684 5679 5674 5670 5666 5662 5657 5653 5648 5644 5641 5639 5634 5629 5626 5624 5621 5618 5616 5614 5611
5787 5789 5791 5791 5789 5786 5781 5775 5768 5761 5753 5745 5736 5725 5714 5705 5698 5692 5689 5687 5685 5682 5676 5671 5666 5662 5657 5652 5649 5645 5639 5633 5630 5629 5625 5620 5615 5611 5608 5605 5603 5599 5597
5781 5783 5783 5783 5782 5778 5775 5770 5763 5754 5746 5738 5727 5716 5703 5695 5688 5683 5679 5678 5676 5673 5668 5664 5659 5654 5650 5644 5639 5635 5631 5624 5618 5616 5614 5610 5606 5598 5596 5592 5589 5585 5582
5776 5778 5777 5776 5773 5770 5767 5761 5754 5745 5736 5728 5717 5709 5697 5687 5680 5675 5671 5668 5665 5662 5658 5654 5650 5644 5640 5634 5629 5624 5620 5615 5608 5603 5598 5594 5590 5587 5585 5582 5577 5573 5570
5767 5769 5768 5766 5762 5759 5755 5749 5741 5733 5725 5718 5710 5702 5692 5682 5674 5666 5661 5658 5655 5652 5648 5644 5639 5634 5628 5622 5617 5613 5608 5602 5596 5591 5585 5580 5574 5570 5568 5568 5565 5561 5557
5756 5756 5755 5753 5750 5746 5741 5735 5728 5721 5714 5707 5699 5690 5682 5672 5665 5658 5652 5647 5645 5642 5638 5632 5628 5622 5616 5611 5606 5601 5595 5589 5583 5577 5572 5567 5562 5557 5552 5550 5549 5548 5546
5742 5742 5740 5738 5735 5731 5727 5721 5716 5708 5702 5696 5689 5681 5672 5664 5657 5651 5645 5639 5634 5629 5625 5620 5616 5611 5605 5599 5594 5588 5582 5576 5570 5564 5558 5553 5547 5542 5537 5534 5533 5532 5531
5726 5726 5724 5722 5719 5716 5712 5708 5702 5696 5690 5685 5679 5670 5661 5653 5646 5642 5636 5629 5624 5618 5613 5608 5603 5597 5592 5586 5580 5574 5568 5562 5556 5550 5544 5538 5532 5526 5521 5517 5515 5517 5520
5709 5709 5707 5705 5702 5699 5695 5691 5686 5680 5673 5669 5663 5655 5648 5641 5635 5629 5623 5617 5611 5606 5599 5593 5588 5582 5576 5571 5565 5558 5552 5546 5540 5534 5528 5523 5517 5511 5506 5501 5496 5494 5502
5694 5692 5690 5687 5685 5682 5678 5674 5671 5664 5659 5653 5647 5639 5632 5627 5622 5616 5609 5603 5597 5591 5584 5577 5571 5565 5559 5554 5548 5541 5535 5529 5523 5518 5512 5506 5501 5496 5490 5485 5480 5475 5475
5678 5676 5673 5670 5668 5664 5661 5657 5653 5648 5642 5636 5630 5624 5618 5613 5607 5601 5595 5588 5581 5575 5568 5561 5554 5548 5542 5537 5531 5524 5518 5512 5506 5501 5496 5491 5486 5481 5475 5471 5466 5461 5458
5663 5661 5658 5655 5652 5648 5644 5640 5636 5631 5626 5621 5616 5609 5604 5598 5591 5584 5577 5571 5564 5558 5551 5544 5538 5531 5525 5519 5514 5508 5501 5496 5491 5486 5481 5477 5472 5467 5462 5457 5453 5449 5446
5649 5646 5643 5640 5636 5632 5628 5624 5619 5615 5610 5604 5598 5592 5586 5580 5572 5565 5559 5553 5546 5540 5533 5527 5521 5514 5508 5502 5497 5491 5485 5480 5476 5471 5467 5463 5459 5455 5450 5446 5443 5440 5437
5634 5630 5626 5622 5618 5615 5611 5607 5602 5598 5593 5587 5580 5573 5567 5560 5553 5547 5541 5535 5529 5522 5516 5509 5503 5497 5492 5486 5481 5475 5470 5466 5462 5458 5454 5451 5447 5444 5440 5438 5434 5431 5428
5618 5613 5608 5604 5601 5597 5593 5589 5584 5580 5575 5569 5562 5555 5548 5541 5535 5529 5522 5516 5510 5504 5498 5492 5486 5481 5476 5471 5466 5461 5457 5453 5450 5446 5443 5439 5437 5436 5432 5429 5426 5423 5420
5602 5596 5592 5588 5584 5579 5575 5570 5565 5560 5556 5550 5543 5537 5531 5524 5517 5510 5504 5498 5491 5485 5480 5475 5469 5465 5461 5457 5453 5449 5444 5441 5438 5435 5432 5429 5428 5425 5422 5419 5416 5414 5412
5586 5580 5575 5570 5565 5560 5557 5552 5547 5542 5538 5532 5525 5519 5513 5507 5500 5493 5486 5480 5473 5468 5463 5458 5454 5450 5446 5443 5439 5436 5432 5429 5427 5424 5422 5420 5419 5416 5413 5411 5410 5408 5408
5568 5563 5558 5553 5548 5543 5539 5535 5530 5525 5519 5513 5507 5501 5495 5488 5481 5475 5468 5462 5457 5452 5448 5444 5440 5437 5434 5430 5426 5423 5420 5418 5417 5415 5414 5412 5410 5409 5407 5406 5407 5407 5408
5551 5546 5541 5537 5532 5527 5523 5518 5513 5507 5502 5495 5489 5483 5477 5470 5464 5458 5452 5447 5442 5438 5434 5431 5427 5424 5420 5417 5414 5412 5409 5408 5408 5407 5407 5405 5404 5403 5402 5403 5405 5407 5409
5536 5531 5526 5521 5516 5510 5507 5502 5496 5490 5484 5478 5472 5466 5460 5454 5448 5443 5437 5432 5428 5425 5421 5418 5414 5411 5408 5406 5403 5401 5399 5399 5399 5400 5401 5400 5399 5399 5400 5401 5404 5406 5408
5521 5516 5511 5505 5500 5495 5491 5485 5479 5473 5468 5463 5457 5451 5445 5440 5435 5429 5424 5420 5416 5412 5408 5405 5402 5399 5397 5395 5394 5392 5391 5391 5392 5394 5395 5396 5396 5398 5400 5402 5404 5405 5406
5506 5501 5496 5491 5486 5481 5477 5470 5464 5459 5454 5449 5443 5438 5433 5428 5423 5417 5411 5407 5403 5399 5395 5392 5391 5389 5388 5386 5386 5385 5385 5386 5387 5389 5391 5393 5395 5398 5401 5403 5405 5406 5408
5493 5488 5483 5478 5473 5469 5464 5458 5452 5447 5442 5437 5431 5425 5421 5415 5410 5405 5400 5395 5391 5387 5384 5382 5380 5380 5381 5380 5380 5381 5382 5383 5385 5387 5390 5393 5396 5399 5402 5404 5406 5408 5409
5481 5477 5472 5467 5462 5457 5453 5448 5443 5438 5432 5426 5420 5414 5409 5404 5398 5393 5389 5385 5381 5378 5376 5374 5374 5374 5375 5375 5376 5377 5379 5381 5384 5387 5390 5394 5397 5400 5402 5405 5407 5408 5408
5470 5466 5462 5457 5453 5449 5444 5440 5435 5429 5423 5417 5411 5405 5399 5393 5388 5384 5380 5377 5374 5371 5370 5369 5368 5368 5370 5370 5370 5371 5375 5378 5381 5385 5390 5394 5397 5400 5403 5406 5408 5409 5409
5462 5458 5454 5450 5446 5441 5437 5432 5427 5421 5414 5408 5401 5395 5389 5384 5380 5376 5373 5371 5369 5368 5366 5365 5364 5364 5364 5366 5368 5371 5374 5378 5382 5386 5389 5392 5395 5399 5402 5405 5407 5408 5409